Location: Bothwell
(42.3833°S, 147.0000°E)
Time: 04:00:12
(UTC+10:00)

XW-2C - Pass Details

Date: 24 April 2024
Orbit: 436 x 449 km, 97.5° (Epoch: 22 May)

Event Time Altitude Azimuth Distance (km) Brightness Sun altitude
Rises 05:19:58 0° 48° (NE) 2,442 ? -17.9°
Reaches altitude 10° 05:22:23 10° 66° (ENE) 1,585 ? -17.4°
Maximum altitude 05:24:49 19° 112° (ESE) 1,165 ? -17.0°
Drops below altitude 10° 05:27:18 10° 158° (SSE) 1,613 ? -16.5°
Sets 05:29:47 0° 176° (S) 2,502 ? -16.1°
